This demonstration page uses our WeatherBlox Daily Observations layout. Learn more.

Left ArrowRight Arrow

38.20091, -84.87328

Hourly Observations for July 13, 2015

Temp ( °F °C ) Dew Point ( °F °C ) Humidity (%) Winds ( mph kmh ) Pressure ( in mb ) Visibility ( mi km ) Precip ( " mm )
1:53 am 01:53 Clear 73 22.8 70 21.1 90 90 Calm 29.90 1012 9 14 0.00 0.00
2:53 am 02:53 Clear 72 22.2 69 20.6 91 91 WNW 3 6 29.88 1012 9 14 0.00 0.00
3:53 am 03:53 Clear with Mist and Fog 72 22.2 70 21.1 94 94 WSW 3 6 29.87 1012 3 5 0.00 0.00
4:23 am 04:23 Clear with Mist and Fog 72 22.2 70 21.1 94 94 Calm 29.85 1011 2 3 0.00 0.00
4:29 am 04:29 Clear with Mist and Fog 72 22.2 70 21.1 94 94 Calm 29.85 1011 3 5 0.00 0.00
4:42 am 04:42 Clear with Mist and Fog 71 21.7 70 21.1 96 96 Calm 29.85 1011 2 2 0.00 0.00
4:53 am 04:53 Clear with Mist and Fog 71 21.7 69 20.6 94 94 Calm 29.87 1012 1 1 0.00 0.00
5:02 am 05:02 Clear with Mist and Fog 72 22.2 69 20.6 91 91 Calm 29.88 1012 1 2 0.00 0.00
5:05 am 05:05 Mostly Clear with Mist and Fog 71 21.7 70 21.1 96 96 Calm 29.88 1012 4 6 0.00 0.00
5:23 am 05:23 Mostly Clear with Mist and Fog 70 21.1 68 20 93 93 Calm 29.85 1011 2 2 0.00 0.00
5:25 am 05:25 Partly Cloudy with Mist and Fog 70 21.1 68 20 93 93 Calm 29.85 1011 1 1 0.00 0.00
5:38 am 05:38 Partly Cloudy with Mist and Fog 71 21.7 69 20.6 94 94 Calm 29.85 1011 1 2 0.00 0.00
5:42 am 05:42 Mostly Clear with Mist and Fog 71 21.7 69 20.6 94 94 Calm 29.85 1011 3 5 0.00 0.00
5:53 am 05:53 Mostly Clear with Mist and Fog 71 21.7 69 20.6 94 94 Calm 29.86 1011 6 10 0.00 0.00
5:59 am 05:59 Mostly Clear with Mist and Fog 71 21.7 69 20.6 94 94 Calm 29.85 1011 2 3 0.00 0.00
6:13 am 06:13 Mostly Cloudy with Mist and Fog 70 21.1 68 20 93 93 Calm 29.85 1011 1 2 0.00 0.00
6:20 am 06:20 Mostly Cloudy with Mist and Fog 70 21.1 68 20 93 93 Calm 29.85 1011 1 2 0.00 0.00
6:28 am 06:28 Cloudy with Mist and Fog 71 21.7 69 20.6 94 94 Calm 29.85 1011 5 8 0.00 0.00
6:53 am 06:53 Mostly Cloudy with Mist and Fog 71 21.7 69 20.6 94 94 Calm 29.86 1011 3 4 0.00 0.00
7:07 am 07:07 Partly Cloudy with Mist and Fog 72 22.2 70 21.1 94 94 Calm 29.88 1012 3 5 0.00 0.00
7:35 am 07:35 Partly Cloudy with Mist and Fog 72 22.2 70 21.1 94 94 Calm 29.88 1012 4 6 0.00 0.00
7:53 am 07:53 Partly Cloudy with Mist and Fog 73 22.8 71 21.7 94 94 Calm 29.87 1012 4 6 0.00 0.00
8:53 am 08:53 Mostly Sunny 75 23.9 72 22.2 90 90 S 3 6 29.87 1012 10 16 0.00 0.00
9:53 am 09:53 Mostly Cloudy 77 25 73 22.8 88 88 SSW 3 6 29.87 1012 10 16 0.00 0.00
10:53 am 10:53 Mostly Cloudy 82 27.8 76 24.4 82 82 SW 5 7 29.86 1011 10 16 0.00 0.00
11:53 am 11:53 Partly Cloudy 85 29.4 75 23.9 72 72 VRB 3 6 29.85 1011 10 16 0.00 0.00
12:53 pm 12:53 Mostly Sunny 86 30 74 23.3 67 67 SSW 7 11 29.84 1011 10 16 0.00 0.00
1:53 pm 13:53 Mostly Sunny 87 30.6 74 23.3 65 65 SW 10 17 29.82 1010 10 16 0.00 0.00
2:41 pm 14:41 Partly Cloudy with Nearby Thunderstorms 85 29.4 74 23.3 70 70 W 3 6 29.83 1010 10 16 0.00 0.00
2:53 pm 14:53 Partly Cloudy with Nearby Thunderstorms 84 28.9 74 23.3 72 72 NW 6 9 29.84 1011 10 16 0.00 0.00
3:06 pm 15:06 Mostly Cloudy with Strong Thunderstorms 72 22.2 67 19.4 84 84 N 25 41 29.88 1012 3 4 0.04 1.02
3:10 pm 15:10 Mostly Cloudy with Strong Thunderstorms 70 21.1 66 18.9 87 87 N 21 33 29.88 1012 1 2 0.23 5.84
3:14 pm 15:14 Mostly Cloudy with Strong Thunderstorms 68 20 66 18.9 93 93 N 14 22 29.88 1012 1 1 0.38 9.65
3:21 pm 15:21 Cloudy with Strong Thunderstorms 68 20 66 18.9 93 93 VRB 3 6 29.85 1011 1 2 0.45 11.43
3:28 pm 15:28 Cloudy with Thunderstorms 68 20 66 18.9 93 93 VRB 3 6 29.85 1011 2 3 0.48 12.19
3:31 pm 15:31 Mostly Cloudy with Thunderstorms 68 20 66 18.9 93 93 E 3 6 29.85 1011 4 6 0.48 12.19
3:49 pm 15:49 Partly Cloudy with Nearby Thunderstorms 68 20 66 19 94 94 ENE 5 7 29.85 1011 10 16 0.48 12.19
3:53 pm 15:53 Partly Cloudy with Nearby Thunderstorms 69 20.6 66 18.9 90 90 E 5 7 29.85 1011 10 16 0.48 12.19
4:04 pm 16:04 Sunny 69 20.6 66 18.9 90 90 ESE 7 11 29.85 1011 10 16 0.00 0.00
4:53 pm 16:53 Partly Cloudy 71 21.7 67 19.4 87 87 SE 5 7 29.83 1010 10 16 0.00 0.00
5:53 pm 17:53 Mostly Cloudy 75 23.9 68 20 79 79 SE 7 11 29.81 1009 10 16 0.00 0.00
6:53 pm 18:53 Sunny 75 23.9 68 20 79 79 S 15 24 29.79 1009 10 16 0.00 0.00
7:53 pm 19:53 Sunny 75 23.9 68 20 79 79 S 10 17 29.76 1008 10 16 0.00 0.00
8:53 pm 20:53 Sunny 73 22.8 68 20 84 84 S 8 13 29.77 1008 10 16 0.00 0.00
9:53 pm 21:53 Clear 72 22.2 68 20 87 87 S 7 11 29.77 1008 10 16 0.00 0.00
10:53 pm 22:53 Clear 72 22.2 69 20.6 91 91 SSW 7 11 29.72 1007 10 16 0.00 0.00
11:53 pm 23:53 Clear 73 22.8 69 20.6 87 87 SSW 6 9 29.69 1005 10 16 0.00 0.00

Powered by AerisWeather